This is the latest recevied weather packets stored in our database for station/object G6UYG-13. If no packets are shown the sender has not sent any weather packets the latest 1 day(s).
| Time | Temp. | Humidity | Pressure | Rain* | Wind** | Luminosity | Snow |
|---|---|---|---|---|---|---|---|
| 1778001693 | 11.11° C | 75% | 1012.3 hPa | 0 mm | 0.45 m/s, 258° | 62 W/m² | - |
| 1778001273 | 11.11° C | 75% | 1012.3 hPa | 0 mm | 0.89 m/s, 355° | 67 W/m² | - |
| 1778000854 | 11.11° C | 74% | 1012.3 hPa | 0 mm | 0.89 m/s, 40° | 72 W/m² | - |
| 1778000471 | 11.11° C | 74% | 1012.4 hPa | 0 mm | 0.45 m/s, 75° | 77 W/m² | - |
| 1778000434 | 11.11° C | 74% | 1012.4 hPa | 0 mm | 0.45 m/s, 75° | 77 W/m² | - |
| 1778000014 | 11.11° C | 74% | 1012.4 hPa | 0 mm | 0.89 m/s, 89° | 88 W/m² | - |
| 1777999680 | 11.11° C | 74% | 1012.4 hPa | 0 mm | 0.89 m/s, 20° | 93 W/m² | - |
| 1777999594 | 11.11° C | 74% | 1012.4 hPa | 0 mm | 0.89 m/s, 20° | 93 W/m² | - |
| 1777999174 | 11.11° C | 73% | 1012.4 hPa | 0 mm | 0.89 m/s, 59° | 77 W/m² | - |
| 1777998824 | 11.67° C | 73% | 1012.4 hPa | 0 mm | 0.89 m/s, 38° | 70 W/m² | - |
| 1777998754 | 11.67° C | 73% | 1012.4 hPa | 0 mm | 0.89 m/s, 38° | 70 W/m² | - |
| 1777998417 | 11.67° C | 74% | 1012.4 hPa | 0 mm | 0.89 m/s, 66° | 72 W/m² | - |
| 1777998334 | 11.67° C | 74% | 1012.4 hPa | 0 mm | 0.89 m/s, 66° | 72 W/m² | - |
| 1777997914 | 11.67° C | 74% | 1012.4 hPa | 0 mm | 0.89 m/s, 62° | 86 W/m² | - |
| 1777997494 | 11.67° C | 74% | 1012.4 hPa | 0 mm | 0.89 m/s, 350° | 105 W/m² | - |
| 1777997074 | 11.67° C | 73% | 1012.3 hPa | 0 mm | 0.89 m/s, 90° | 111 W/m² | - |
| 1777996654 | 11.67° C | 73% | 1012.4 hPa | 0 mm | 0.89 m/s, 58° | 105 W/m² | - |
| 1777996234 | 11.67° C | 73% | 1012.5 hPa | 0 mm | 0.89 m/s, 71° | 105 W/m² | - |
| 1777995814 | 11.67° C | 73% | 1012.5 hPa | 0 mm | 0.45 m/s, 65° | 107 W/m² | - |
| 1777995394 | 11.11° C | 74% | 1012.5 hPa | 0 mm | 0.45 m/s, 331° | 109 W/m² | - |
| 1777994974 | 11.11° C | 74% | 1012.5 hPa | 0 mm | 0.89 m/s, 323° | 109 W/m² | - |
| 1777994554 | 11.11° C | 73% | 1012.5 hPa | 0 mm | 0.45 m/s, 49° | 102 W/m² | - |
| 1777994134 | 11.67° C | 72% | 1012.6 hPa | 0 mm | 0.89 m/s, 78° | 91 W/m² | - |
| 1777993714 | 11.67° C | 72% | 1012.6 hPa | 0 mm | 0.89 m/s, 63° | 86 W/m² | - |
| 1777993294 | 11.67° C | 72% | 1012.5 hPa | 0 mm | 0.89 m/s, 75° | 93 W/m² | - |
* Rain latest hour (hover to see other rain measurements)
** Current wind speed in m/s (hover to see current wind gust speed)